"2009-05-27 00:00:00",921912,1.793,61.17,4.27,0.315,10.7,104.9073,11.84,12.92,61.61,0,110.4,13.35,12.63,23.2
"2009-05-27 00:00:30",921913,2.104,53.3,3.561,0.246,10.61,104.9039,11.83,12.91,62.44,0,110.4,13.35,12.62,15.3
"2009-05-27 00:01:00",921914,3.955,58.74,6.658,1.454,12.78,104.9045,11.83,13.04,62.08,0,110.4,13.31,12.62,20.7
"2009-05-27 00:01:30",921915,2.725,43.81,14.2,1.257,11.97,104.9036,11.83,13.03,60.7,0,110.4,13.31,12.62,5.8
"2009-05-27 00:02:00",921916,2.813,68.34,8.99,0.449,10.74,104.9059,11.83,12.89,60.56,0,110.4,13.35,12.62,30.3
"2009-05-27 00:02:30",921917,2.956,73.48,4.54,0.17,10.68,104.9158,11.86,12.89,60.96,0,110.4,13.35,12.65,35.5
"2009-05-27 00:03:00",921918,4.178,97.1,5.011,1.148,12.82,104.926,11.88,12.92,61.2,0,110.4,13.31,12.68,59.1
"2009-05-27 00:03:30",921919,3.813,85.6,8.55,1.163,13.55,104.9315,11.9,13.09,61.7,0,110.4,13.31,12.69,47.6
"2009-05-27 00:04:00",921920,4.455,80.7,10.16,1.407,12.36,104.9378,11.91,12.93,61.64,0,110.4,13.31,12.71,42.7
"2009-05-27 00:04:30",921921,3.831,90.6,6.144,1.082,12.02,104.9374,11.91,13.08,61.85,0,110.4,13.31,12.71,52.6
"2009-05-27 00:05:00",921922,4.014,84.3,6.051,1.34,12.4,104.9374,11.91,12.92,61.85,0,110.4,13.31,12.71,46.3
"2009-05-27 00:05:30",921923,3.634,90.1,8.88,1.12,13.32,104.9374,11.91,13.12,61.98,0,110.4,13.31,12.71,52.1
"2009-05-27 00:06:00",921924,2.444,91.4,4.438,0.343,10.7,104.9374,11.91,12.93,61.73,0,110.4,13.35,12.71,53.4
"2009-05-27 00:06:30",921925,2.617,91.2,4.921,0.39,10.39,104.9374,11.91,12.95,61.74,0,110.4,13.35,12.71,53.2
"2009-05-27 00:07:00",921926,2.559,88.7,4.808,0.267,10.48,104.9374,11.91,12.94,61.7,0,110.4,13.34,12.71,50.7
"2009-05-27 00:07:30",921927,2.153,90.3,3.06,0.257,10.75,104.9374,11.91,12.95,61.71,0,110.4,13.34,12.71,52.3
"2009-05-27 00:08:00",921928,2.539,101.4,16.89,0.36,10.82,104.9383,11.91,12.96,61.35,0,110.4,13.34,12.71,63.4
"2009-05-27 00:08:30",921929,3.556,76.74,4.414,0.445,11.14,104.949,11.94,12.97,60.61,0,110.4,13.34,12.74,38.7
"2009-05-27 00:09:00",921930,4.199,74.17,10.55,1.142,12.13,104.9619,11.98,12.99,59.61,0,110.4,13.31,12.77,36.2
"2009-05-27 00:09:30",921931,5.334,58.86,8.85,1.431,14.17,104.9679,11.99,13.24,59.77,0,110.4,13.31,12.78,20.9
"2009-05-27 00:10:00",921932,4.453,47.82,5.268,0.802,11.99,104.9707,12,13.13,59.65,0,110.4,13.31,12.79,9.8
"2009-05-27 00:10:30",921933,4.966,49.24,6.31,1.763,13.11,104.9712,12,13.04,59.7,0,110.4,13.3,12.79,11.2
"2009-05-27 00:11:00",921934,4.645,48.23,5.744,1.402,13.29,104.9712,12,13.24,59.36,0,110.4,13.3,12.79,10.2
"2009-05-27 00:11:30",921935,4.75,45.22,7.94,1.433,12.94,104.9712,12,13.2,59.29,0,110.4,13.3,12.79,7.2
"2009-05-27 00:12:00",921936,3.786,41.64,4.71,0.955,10.7,104.9811,12.02,13.02,59.47,0,110.4,13.3,12.82,3.6
"2009-05-27 00:12:30",921937,3.317,38.53,3.433,0.544,10.44,105.0025,12.08,13.05,57.94,0,110.4,13.34,12.87,0.5
"2009-05-27 00:13:00",921938,2.145,30.29,3.067,0.473,10.49,105.0051,12.09,13.04,56.67,0,110.4,13.34,12.88,352.3
"2009-05-27 00:13:30",921939,3.061,38.14,2.322,0.228,10.58,105.0051,12.09,13.06,55.42,0,110.4,13.35,12.88,0.1
"2009-05-27 00:14:00",921940,2.946,38.24,1.787,0.231,10.82,105.013,12.11,13.08,53.59,0,110.4,13.35,12.90,0.2
"2009-05-27 00:14:30",921941,2.991,35.98,1.483,0.18,11.11,105.0335,12.16,13.09,52.84,0,110.4,13.35,12.95,358.0
"2009-05-27 00:15:00",921942,3.034,38.85,2.087,0.243,11.33,105.0389,12.17,13.15,53.09,0,110.4,13.35,12.97,0.8
"2009-05-27 00:15:30",921943,4.247,44.99,4.714,1.363,13.47,105.0389,12.17,13.22,53.36,0,110.4,13.31,12.97,7.0
"2009-05-27 00:16:00",921944,4.415,48.28,5.142,0.906,12.56,105.0614,12.23,13.31,53.91,0,110.4,13.31,13.02,10.3
"2009-05-27 00:16:30",921945,5.931,54.8,5.879,1.376,14.48,105.0727,12.26,13.44,54.41,0,110.4,13.31,13.05,16.8
"2009-05-27 00:17:00",921946,5.786,58.18,6.539,1.542,14.73,105.0727,12.26,13.46,54.49,0,110.4,13.31,13.05,20.2
"2009-05-27 00:17:30",921947,4.241,55.03,7.591,1.471,13.4,105.0798,12.28,13.31,54.75,0,110.4,13.31,13.07,17.0
"2009-05-27 00:18:00",921948,3.693,50.62,5.61,0.999,11.51,105.0969,12.32,13.42,54.96,0,110.4,13.3,13.12,12.6
"2009-05-27 00:18:30",921949,3.832,50.8,4.882,0.277,10.29,105.106,12.34,13.26,54.83,0,110.4,13.34,13.14,12.8
"2009-05-27 00:19:00",921950,3.603,51.39,1.595,0.127,10.19,105.1065,12.35,13.26,54.57,0,110.4,13.34,13.14,13.4
"2009-05-27 00:19:30",921951,3.385,49.43,1.283,0.089,10.58,105.1065,12.35,13.3,54.13,0,110.4,13.34,13.14,11.4
"2009-05-27 00:20:00",921952,3.266,50.68,2.129,0.127,11,105.1065,12.35,13.31,53.9,0,110.4,13.34,13.14,12.7
"2009-05-27 00:20:30",921953,3.11,53.18,3.48,0.157,11.31,105.1065,12.35,13.33,53.85,0,110.4,13.34,13.14,15.2
"2009-05-27 00:21:00",921954,3.895,58.29,6.37,1.329,13.45,105.1088,12.35,13.46,54.38,0,110.4,13.31,13.15,20.3
"2009-05-27 00:21:30",921955,2.578,52.09,4.544,0.176,11.6,105.1161,12.37,13.37,54.53,0,110.4,13.34,13.16,14.1
"2009-05-27 00:22:00",921956,3.737,59.84,11.87,1.395,13.25,105.1232,12.39,13.52,55.27,0,110.4,13.31,13.18,21.8
"2009-05-27 00:22:30",921957,5.062,61.3,6.878,1.412,14.13,105.1299,12.4,13.63,55.9,0,110.4,13.3,13.20,23.3
"2009-05-27 00:23:00",921958,5.501,67,6.694,1.374,15.06,105.1308,12.41,13.57,56.16,0,110.4,13.3,13.20,29.0
"2009-05-27 00:23:30",921959,3.781,64.42,4.057,1.186,11.29,105.126,12.39,13.38,56.33,0,110.4,13.3,13.19,26.4
"2009-05-27 00:24:00",921960,3.353,58.48,3.405,0.208,10.32,105.1248,12.39,13.38,56.33,0,110.4,13.33,13.19,20.5
"2009-05-27 00:24:30",921961,3.553,58.86,2.418,0.168,10.34,105.1198,12.38,13.39,56.67,0,110.4,13.33,13.17,20.9
"2009-05-27 00:25:00",921962,2.623,50.5,2.717,0.37,10.54,105.1136,12.36,13.39,56.63,0,110.4,13.33,13.16,12.5
"2009-05-27 00:25:30",921963,2.221,55.6,10.89,0.307,10.97,105.1071,12.35,13.38,56.65,0,110.4,13.33,13.14,17.6
"2009-05-27 00:26:00",921964,2.92,69.17,3.228,0.089,11.21,105.1065,12.35,13.37,56.43,0,110.4,13.33,13.14,31.2
"2009-05-27 00:26:30",921965,2.567,66.32,7.73,0.279,11.46,105.1065,12.35,13.35,56.53,0,110.4,13.33,13.14,28.3
"2009-05-27 00:27:00",921966,3.662,83.5,15.98,1.147,13.82,105.0798,12.28,13.47,57.02,0,110.4,13.3,13.07,45.5
"2009-05-27 00:27:30",921967,3.418,75.39,5.781,1.068,12.92,105.0727,12.26,13.44,57.11,0,110.4,13.3,13.05,37.4
"2009-05-27 00:28:00",921968,3.639,68.02,5.685,1.253,13.46,105.0727,12.26,13.4,56.83,0,110.4,13.3,13.05,30.0
"2009-05-27 00:28:30",921969,5.322,66.37,5.366,1.097,15.14,105.0727,12.26,13.49,56.77,0,110.4,13.3,13.05,28.4
"2009-05-27 00:29:00",921970,5.181,58.21,7.062,1.573,13.94,105.0727,12.26,13.43,57.04,0,110.4,13.3,13.05,20.2
"2009-05-27 00:29:30",921971,4.144,48.91,4.735,0.45,11.06,105.0727,12.26,13.38,57.56,0,110.4,13.33,13.05,10.9
"2009-05-27 00:30:00",921972,4.161,49,5.966,0.294,10.28,105.0724,12.26,13.25,57.79,0,110.4,13.33,13.05,11.0
"2009-05-27 00:30:30",921973,4.138,50.18,3.772,0.407,10.21,105.0727,12.26,13.24,59.05,0,110.4,13.33,13.05,12.2
"2009-05-27 00:31:00",921974,3.409,59.32,5.261,0.365,10.59,105.0719,12.26,13.25,60.87,0,110.4,13.33,13.05,21.3
"2009-05-27 00:31:30",921975,3.087,69.16,2.952,0.187,11.08,105.0685,12.25,13.25,60.32,0,110.4,13.33,13.04,31.2
"2009-05-27 00:32:00",921976,4.218,77.66,6.676,1.187,12.02,105.0648,12.24,13.23,59.22,0,110.4,13.3,13.03,39.7
"2009-05-27 00:32:30",921977,4.634,72.29,11.62,1.118,13.52,105.0572,12.22,13.43,60.07,0,110.4,13.3,13.01,34.3
"2009-05-27 00:33:00",921978,3.89,116.2,11.03,1.069,13.57,105.042,12.18,13.32,60.31,0,110.4,13.3,12.97,78.2
"2009-05-27 00:33:30",921979,4.422,149.6,11.96,1.74,14.33,105.0389,12.17,13.48,60.64,0,110.4,13.3,12.97,111.6
"2009-05-27 00:34:00",921980,4.519,143.3,13,1.309,14.03,105.0352,12.16,13.41,61.11,0,110.4,13.3,12.96,105.3
"2009-05-27 00:34:30",921981,5.567,127.6,6.702,1.215,12.56,105.018,12.12,13.36,63.65,0,110.4,13.3,12.91,89.6
"2009-05-27 00:35:00",921982,4.861,117.4,3.704,0.273,9.96,105.0051,12.09,13.19,64.62,0,110.4,13.33,12.88,79.4
"2009-05-27 00:35:30",921983,4.613,118.5,5.775,0.388,10.06,105.0048,12.08,13.15,65.1,0,110.4,13.33,12.88,80.5
"2009-05-27 00:36:00",921984,3.881,117.3,4.844,0.215,10.51,104.9887,12.04,13.15,65.47,0,110.4,13.33,12.84,79.3
"2009-05-27 00:36:30",921985,3.739,115.3,3.449,0.119,10.93,104.9712,12,13.16,65.5,0,110.4,13.34,12.79,77.3
"2009-05-27 00:37:00",921986,5,120,5.014,1.375,14.5,104.9696,11.99,13.37,65.78,0,110.3,13.3,12.79,82.0
"2009-05-27 00:37:30",921987,5.567,123.7,5.967,1.044,15.31,104.9473,11.94,13.23,65.58,0,110.4,13.3,12.73,85.7
"2009-05-27 00:38:00",921988,5.058,117.9,5.819,1.427,13.78,104.9374,11.91,13.2,65.74,0,110.4,13.3,12.71,79.9
"2009-05-27 00:38:30",921989,5.181,113.6,6.465,1.26,12.84,104.9343,11.9,13.21,66.01,0,110.4,13.3,12.70,75.6
"2009-05-27 00:39:00",921990,4.486,113.2,7.222,1.024,11.85,104.9109,11.84,13.17,66.09,0,110.4,13.3,12.64,75.2
"2009-05-27 00:39:30",921991,3.468,110,2.883,0.121,10.02,104.9036,11.83,12.97,65.71,0,110.4,13.33,12.62,72.0
"2009-05-27 00:40:00",921992,3.715,107.7,2.726,0.365,10.06,104.8932,11.8,12.94,65.73,0,110.4,13.33,12.59,69.7
"2009-05-27 00:40:30",921993,4.585,108.2,2.977,0.145,10.36,104.8718,11.74,12.9,66.19,0,110.4,13.33,12.54,70.2
"2009-05-27 00:41:00",921994,5.861,114.5,6.909,1.478,12.73,104.8692,11.74,13,66.7,0,110.4,13.3,12.53,76.5
"2009-05-27 00:41:30",921995,7.02,122.6,6.13,1.394,14.89,104.8388,11.66,13.11,67.56,0,110.4,13.29,12.45,84.6
"2009-05-27 00:42:00",921996,7.375,124.8,5.177,1.178,15.05,104.8323,11.64,13.1,68.4,0,110.4,13.29,12.44,86.8
"2009-05-27 00:42:30",921997,7.808,124.2,9.12,1.268,13.99,104.8067,11.58,13.05,68.75,0,110.4,13.29,12.37,86.2
"2009-05-27 00:43:00",921998,6.626,116.8,5.855,0.893,10.48,104.7822,11.51,12.81,69.31,0,110.4,13.29,12.31,78.8
"2009-05-27 00:43:30",921999,6.132,117.4,1.29,0.147,9.9,104.7579,11.45,12.71,69.6,0,110.4,13.33,12.24,79.4
"2009-05-27 00:44:00",922000,5.81,116.7,1.613,0.168,10.11,104.7314,11.39,12.68,69.82,0,110.4,13.33,12.18,78.7
"2009-05-27 00:44:30",922001,6.251,120.4,7.831,1.188,12.38,104.7007,11.31,12.78,70.17,0,110.4,13.29,12.10,82.4
"2009-05-27 00:45:00",922002,6.951,126.6,7.303,1.357,14.13,104.6745,11.24,12.79,70.4,0,110.4,13.29,12.03,88.6
"2009-05-27 00:45:30",922003,6.232,126.8,6.239,1.342,12.82,104.6508,11.18,12.68,70.48,0,110.4,13.3,11.97,88.8
"2009-05-27 00:46:00",922004,6.607,127.9,5.703,1.25,14.04,104.6308,11.13,12.7,70.65,0,110.4,13.3,11.92,89.9
"2009-05-27 00:46:30",922005,4.859,124.9,3.801,1.018,10.78,104.6007,11.05,12.49,70.58,0,110.4,13.31,11.84,86.9
"2009-05-27 00:47:00",922006,3.99,120.3,3.851,0.171,10.01,104.5863,11.01,12.34,70.41,0,110.4,13.34,11.80,82.3
"2009-05-27 00:47:30",922007,3.861,117.2,3.751,0.288,10.07,104.5666,10.96,12.28,70.33,0,110.4,13.34,11.75,79.2
"2009-05-27 00:48:00",922008,4.1,115.9,1.756,0.129,10.46,104.5567,10.94,12.23,70.35,0,110.4,13.34,11.73,77.9
"2009-05-27 00:48:30",922009,5.065,125.3,5.801,1.367,13.36,104.5372,10.89,12.33,70.54,0,110.4,13.31,11.68,87.3
"2009-05-27 00:49:00",922010,5.511,128.7,6.371,1.243,14.14,104.5373,10.89,12.39,70.66,0,110.4,13.31,11.68,90.7
"2009-05-27 00:49:30",922011,6.306,136.4,6.223,1.238,13.53,104.5189,10.84,12.21,70.78,0,110.3,13.31,11.63,98.4
"2009-05-27 00:50:00",922012,6.378,136.2,6.893,1.238,13.87,104.5131,10.83,12.35,71.64,0,110.3,13.31,11.62,98.2
"2009-05-27 00:50:30",922013,5.358,130.1,7.792,1.066,11.48,104.5146,10.83,12.18,72.19,0,110.3,13.31,11.62,92.1
"2009-05-27 00:51:00",922014,5.001,122.9,2.466,0.248,9.89,104.501,10.8,12.02,72.55,0,110.3,13.34,11.59,84.9
"2009-05-27 00:51:30",922015,5.093,128.4,1.376,0.12,9.95,104.4896,10.77,11.97,73.02,0,110.3,13.35,11.56,90.4
"2009-05-27 00:52:00",922016,6.295,129.5,5.26,1.438,12.31,104.4917,10.77,12.09,73.35,0,110.3,13.31,11.56,91.5
"2009-05-27 00:52:30",922017,7.273,130.6,7.349,1.276,13.91,104.4671,10.71,12.1,73.67,0,110.3,13.31,11.50,92.6
"2009-05-27 00:53:00",922018,7.694,129.9,6.816,1.285,14.12,104.4652,10.7,12.03,73.87,0,110.3,13.31,11.49,91.9
"2009-05-27 00:53:30",922019,7.07,123.9,5.88,1.14,13.01,104.4483,10.66,12.06,74.22,0,110.3,13.31,11.45,85.9
"2009-05-27 00:54:00",922020,6.784,129.7,6.628,1.414,12.93,104.4317,10.62,12,74.34,0,110.3,13.31,11.41,91.7
"2009-05-27 00:54:30",922021,5.269,126.6,1.289,0.183,9.77,104.4229,10.6,11.77,74.32,0,110.3,13.35,11.38,88.6
"2009-05-27 00:55:00",922022,5.268,124.3,2.07,0.204,9.82,104.3981,10.53,11.73,74.41,0,110.3,13.35,11.32,86.3
"2009-05-27 00:55:30",922023,6.125,131.5,7.116,1.087,11.45,104.3947,10.52,11.85,74.62,0,110.3,13.32,11.31,93.5
"2009-05-27 00:56:00",922024,7.155,137.3,7.237,1.261,14.14,104.3716,10.46,11.9,74.79,0,110.3,13.32,11.25,99.3
"2009-05-27 00:56:30",922025,5.424,130.5,4.04,0.771,11.02,104.364,10.45,11.75,74.87,0,110.3,13.32,11.23,92.5
"2009-05-27 00:57:00",922026,6.58,135.9,7.358,1.316,13.49,104.3507,10.41,11.85,75.18,0,110.3,13.31,11.20,97.9
"2009-05-27 00:57:30",922027,6.022,138,6.841,1.251,12.94,104.3307,10.36,11.74,75.09,0,110.3,13.31,11.15,100.0
"2009-05-27 00:58:00",922028,4.389,129.3,1.417,0.26,9.88,104.3296,10.36,11.52,74.89,0,110.3,13.35,11.15,91.3
"2009-05-27 00:58:30",922029,4.077,129.1,1.198,0.142,9.78,104.3203,10.33,11.5,74.89,0,110.3,13.35,11.12,91.1
"2009-05-27 00:59:00",922030,4.947,135.3,7.648,1.23,11.85,104.3076,10.3,11.55,74.97,0,110.3,13.32,11.09,97.3
"2009-05-27 00:59:30",922031,4.974,134.1,6.302,1.223,12.25,104.2963,10.27,11.57,74.97,0,110.3,13.31,11.06,96.1
"2009-05-27 01:00:00",922032,4.452,130.8,5.93,1.162,11.73,104.2963,10.27,11.56,74.99,0,110.3,13.32,11.06,92.8
"2009-05-27 01:00:30",922033,5.347,134.3,9,1.234,12.8,104.2963,10.27,11.59,75.09,0,110.3,13.32,11.06,96.3
"2009-05-27 01:01:00",922034,6.641,136.5,7.229,1.179,14.13,104.2963,10.27,11.63,75.33,0,110.3,13.32,11.06,98.5
"2009-05-27 01:01:30",922035,5.476,128.8,6.043,1.311,12.19,104.2958,10.27,11.59,75.4,0,110.3,13.32,11.06,90.8
"2009-05-27 01:02:00",922036,5.136,122,1.376,0.281,9.77,104.2904,10.26,11.38,75.31,0,110.3,13.36,11.04,84.0
"2009-05-27 01:02:30",922037,5.275,124.1,2.527,0.217,9.74,104.2879,10.25,11.36,75.33,0,110.3,13.36,11.04,86.1
"2009-05-27 01:03:00",922038,6.442,130.6,6.424,1.297,12.7,104.2777,10.22,11.61,75.71,0,110.3,13.32,11.01,92.6
"2009-05-27 01:03:30",922039,7.47,132,6.883,1.107,14.25,104.2653,10.19,11.52,75.84,0,110.3,13.32,10.98,94.0
"2009-05-27 01:04:00",922040,5.662,123.6,2.576,0.639,10.15,104.2628,10.19,11.33,75.88,0,110.3,13.33,10.97,85.6
"2009-05-27 01:04:30",922041,7.006,131.5,6.708,1.322,12.74,104.2649,10.19,11.54,76.33,0,110.3,13.32,10.98,93.5
"2009-05-27 01:05:00",922042,7.217,132.5,6.226,1.174,13.28,104.2649,10.19,11.57,76.57,0,110.3,13.32,10.98,94.5
"2009-05-27 01:05:30",922043,5.469,123.1,1.635,0.186,9.78,104.2658,10.19,11.29,76.3,0,110.3,13.36,10.98,85.1
"2009-05-27 01:06:00",922044,5.069,123.9,1.363,0.089,9.48,104.2622,10.18,11.27,76.2,0,110.3,13.36,10.97,85.9
"2009-05-27 01:06:30",922045,6.206,128.3,6.154,1.203,11.24,104.256,10.17,11.41,76.36,0,110.3,13.33,10.96,90.3
"2009-05-27 01:07:00",922046,6.52,134.8,6.605,1.347,12.82,104.2507,10.16,11.52,76.53,0,110.3,13.33,10.94,96.8
"2009-05-27 01:07:30",922047,6.051,130.4,5.569,1.23,11.23,104.244,10.14,11.24,76.25,0,110.3,13.33,10.93,92.4
"2009-05-27 01:08:00",922048,5.616,130,6.024,0.988,11.71,104.2406,10.13,11.46,76.82,0,110.3,13.33,10.92,92.0
"2009-05-27 01:08:30",922049,6.461,139.3,6.514,1.139,14.03,104.2378,10.12,11.46,76.83,0,110.3,13.33,10.91,101.3
"2009-05-27 01:09:00",922050,5.969,137.7,6.426,1.223,12.52,104.2396,10.13,11.33,76.42,0,110.3,13.33,10.91,99.7
"2009-05-27 01:09:30",922051,4.939,131,1.955,0.287,9.57,104.2399,10.13,11.21,76.13,0,110.3,13.36,10.92,93.0
"2009-05-27 01:10:00",922052,5.651,132,4.066,1.31,11.56,104.2407,10.13,11.33,76.62,0,110.3,13.33,10.92,94.0
"2009-05-27 01:10:30",922053,5.639,136.8,6.224,1.215,13.15,104.239,10.13,11.41,76.78,0,110.3,13.33,10.91,98.8
"2009-05-27 01:11:00",922054,4.962,135.3,6.352,1.258,12.56,104.2407,10.13,11.35,76.49,0,110.3,13.33,10.92,97.3
"2009-05-27 01:11:30",922055,3.899,128.1,0.86,0.053,10.26,104.2428,10.13,11.19,75.91,0,110.3,13.36,10.92,90.1
"2009-05-27 01:12:00",922056,4.914,131.1,5.925,1.321,12.49,104.2419,10.13,11.38,75.78,0,110.3,13.33,10.92,93.1
"2009-05-27 01:12:30",922057,5.57,129.5,7.053,1.24,12.85,104.2413,10.13,11.41,75.83,0,110.3,13.33,10.92,91.5
"2009-05-27 01:13:00",922058,5.487,129,7.474,1.261,12.1,104.2434,10.14,11.35,75.93,0,110.3,13.33,10.92,91.0
"2009-05-27 01:13:30",922059,4.614,120.6,1.076,0.143,9.71,104.2422,10.13,11.24,75.86,0,110.3,13.36,10.92,82.6
"2009-05-27 01:14:00",922060,6.55,128.8,5.993,1.194,13.4,104.2498,10.15,11.43,76.09,0,110.3,13.33,10.94,90.8
"2009-05-27 01:14:30",922061,6.469,128.5,6.683,1.275,13.07,104.2472,10.15,11.32,76.05,0,110.3,13.32,10.93,90.5
"2009-05-27 01:15:00",922062,4.637,121.2,1.814,0.092,10.12,104.2481,10.15,11.17,75.88,0,110.3,13.36,10.94,83.2
"2009-05-27 01:15:30",922063,4.618,120.2,1.463,0.088,10.44,104.2499,10.15,11.31,75.96,0,110.3,13.36,10.94,82.2
"2009-05-27 01:16:00",922064,6.628,128.9,5.866,1.132,13.77,104.2444,10.14,11.42,76.03,0,110.3,13.32,10.93,90.9
"2009-05-27 01:16:30",922065,6.119,127.7,6.188,1.314,12.76,104.2264,10.09,11.35,75.83,0,110.2,13.33,10.88,89.7
"2009-05-27 01:17:00",922066,4.545,122.2,2.385,0.413,9.9,104.2266,10.09,11.16,75.86,0,110.3,13.33,10.88,84.2
"2009-05-27 01:17:30",922067,6.152,128.7,6.955,1.263,12.92,104.2266,10.09,11.34,76.01,0,110.3,13.33,10.88,90.7
"2009-05-27 01:18:00",922068,6.332,130.6,6.488,1.14,14.06,104.2278,10.1,11.34,76.03,0,110.2,13.33,10.88,92.6
"2009-05-27 01:18:30",922069,4.447,122.6,1.782,0.476,10.1,104.2259,10.09,11.12,75.64,0,110.2,13.33,10.88,84.6
"2009-05-27 01:19:00",922070,5.005,128.2,5.897,1.175,10.7,104.2197,10.08,11.11,75.79,0,110.2,13.33,10.86,90.2
"2009-05-27 01:19:30",922071,5.039,130.3,6.294,1.054,11.65,104.2025,10.03,11.29,76.16,0,110.2,13.33,10.82,92.3
"2009-05-27 01:20:00",922072,5.124,128.8,6.348,1.174,11.52,104.1963,10.02,11.26,76.43,0,110.2,13.33,10.80,90.8
"2009-05-27 01:20:30",922073,5.583,131.2,7.048,1.313,12.32,104.1963,10.02,11.2,76.73,0,110.2,13.33,10.80,93.2
"2009-05-27 01:21:00",922074,5.955,133.5,6.679,1.28,12.82,104.1963,10.02,11.21,76.77,0,110.2,13.34,10.80,95.5
"2009-05-27 01:21:30",922075,5.623,131.7,6.258,1.381,12.63,104.1963,10.02,11.33,76.61,0,110.2,13.33,10.80,93.7
"2009-05-27 01:22:00",922076,5.506,132.7,5.813,1.29,11.99,104.1935,10.01,11.21,76.47,0,110.2,13.34,10.80,94.7
"2009-05-27 01:22:30",922077,4.489,127.6,2.714,0.202,10.05,104.1853,9.99,11.04,76.41,0,110.3,13.37,10.77,89.6
"2009-05-27 01:23:00",922078,5.837,132.5,6.135,1.329,12.33,104.1712,9.95,11.2,76.71,0,110.2,13.34,10.74,94.5
"2009-05-27 01:23:30",922079,6.363,133.3,6.603,1.289,13.42,104.1624,9.93,11.22,77.09,0,110.2,13.34,10.72,95.3
"2009-05-27 01:24:00",922080,5.079,126.5,4.6,0.882,10.61,104.1624,9.93,11.08,76.96,0,110.2,13.34,10.72,88.5
"2009-05-27 01:24:30",922081,5.358,129,5.339,1.113,11.32,104.1621,9.93,11.16,76.98,0,110.2,13.34,10.72,91.0
"2009-05-27 01:25:00",922082,6.371,134.1,5.973,1.227,13.32,104.1616,9.93,11.17,76.77,0,110.2,13.34,10.71,96.1
"2009-05-27 01:25:30",922083,5.869,129.9,6.35,1.401,11.91,104.1506,9.9,11.11,76.33,0,110.2,13.34,10.69,91.9
"2009-05-27 01:26:00",922084,4.669,126,0.853,0.088,9.94,104.1365,9.86,10.95,76.25,0,110.2,13.38,10.65,88.0
"2009-05-27 01:26:30",922085,5.94,133.4,6.628,1.233,12.51,104.1286,9.84,11.07,76.2,0,110.2,13.34,10.63,95.4
"2009-05-27 01:27:00",922086,6.036,132.6,7.122,1.288,12.7,104.1286,9.84,11.08,76.05,0,110.2,13.34,10.63,94.6
"2009-05-27 01:27:30",922087,6.165,132.7,6.834,1.281,13.01,104.1286,9.84,11.07,76.17,0,110.2,13.34,10.63,94.7
"2009-05-27 01:28:00",922088,5.503,130.2,6.045,1.202,11.71,104.1286,9.84,11.08,76.35,0,110.2,13.34,10.63,92.2
"2009-05-27 01:28:30",922089,5.995,131.7,6.732,1.277,12.44,104.1286,9.84,11.09,76.5,0,110.2,13.34,10.63,93.7
"2009-05-27 01:29:00",922090,5.784,130.5,6.545,1.273,11.58,104.1286,9.84,11.06,76.15,0,110.2,13.34,10.63,92.5
"2009-05-27 01:29:30",922091,5.031,124.4,0.735,0.466,9.65,104.1286,9.84,10.89,75.93,0,110.2,13.34,10.63,86.4
"2009-05-27 01:30:00",922092,5.956,127.3,6.422,1.31,11.48,104.1286,9.84,10.9,76.06,0,110.2,13.34,10.63,89.3
"2009-05-27 01:30:30",922093,5.087,122.8,4.26,0.468,10.89,104.128,9.84,11.07,75.84,0,110.2,13.37,10.63,84.8
"2009-05-27 01:31:00",922094,6.863,128.5,6.339,1.186,12.89,104.1258,9.84,10.99,75.45,0,110.2,13.34,10.62,90.5
"2009-05-27 01:31:30",922095,6.229,124.1,6.233,1.271,11.94,104.1249,9.83,11,75.43,0,110.2,13.34,10.62,86.1
"2009-05-27 01:32:00",922096,7.082,127.8,6.015,1.181,13.65,104.1263,9.84,11.09,75.56,0,110.2,13.34,10.62,89.8
"2009-05-27 01:32:30",922097,6.016,125,6.078,1.265,11.14,104.1286,9.84,10.95,75.44,0,110.2,13.34,10.63,87.0
"2009-05-27 01:33:00",922098,5.052,122.6,3.957,0.678,10.18,104.1298,9.85,11.01,75.51,0,110.2,13.34,10.63,84.6
"2009-05-27 01:33:30",922099,4.794,122.4,0.796,0.048,9.72,104.1309,9.85,10.86,75.31,0,110.2,13.37,10.64,84.4
"2009-05-27 01:34:00",922100,4.847,123.3,2.776,0.522,10.23,104.1304,9.85,10.99,75.41,0,110.2,13.34,10.63,85.3
"2009-05-27 01:34:30",922101,6.445,134.3,5.384,1.325,13.67,104.1298,9.85,11.09,75.44,0,110.2,13.34,10.63,96.3
"2009-05-27 01:35:00",922102,5.973,129.7,6.216,1.301,11.94,104.1327,9.85,10.91,75.55,0,110.2,13.34,10.64,91.7
"2009-05-27 01:35:30",922103,6.772,136.2,5.002,0.974,14.14,104.1336,9.86,11.08,75.67,0,110.2,13.34,10.64,98.2
"2009-05-27 01:36:00",922104,6.021,132.7,6.578,1.299,12.46,104.1339,9.86,11.03,75.44,0,110.2,13.34,10.64,94.7
"2009-05-27 01:36:30",922105,4.462,124.3,0.66,0.044,9.69,104.135,9.86,10.97,75.22,0,110.2,13.38,10.65,86.3
"2009-05-27 01:37:00",922106,4.381,124.5,0.506,0.032,9.63,104.135,9.86,10.88,74.87,0,110.2,13.38,10.65,86.5
"2009-05-27 01:37:30",922107,4.424,124.2,1.556,0.065,10.14,104.1348,9.86,10.99,74.75,0,110.2,13.38,10.65,86.2
"2009-05-27 01:38:00",922108,5.845,130.7,6.962,1.266,12.25,104.1348,9.86,10.98,75,0,110.2,13.34,10.65,92.7
"2009-05-27 01:38:30",922109,5.602,130.3,7.112,1.267,12.35,104.1348,9.86,11.06,75.75,0,110.3,13.35,10.65,92.3
"2009-05-27 01:39:00",922110,6.4,130.3,6.799,1.279,13.23,104.1377,9.87,11.17,76.21,0,110.2,13.34,10.65,92.3
"2009-05-27 01:39:30",922111,6.294,131.2,6.145,1.318,13.13,104.1403,9.87,11.17,76.45,0,110.2,13.34,10.66,93.2
"2009-05-27 01:40:00",922112,5.642,127.7,6.739,1.139,11.39,104.1411,9.87,10.98,76.5,0,110.2,13.34,10.66,89.7
"2009-05-27 01:40:30",922113,4.981,122.3,0.742,0.09,9.77,104.1419,9.88,10.91,76.57,0,110.2,13.38,10.66,84.3
"2009-05-27 01:41:00",922114,5.079,122.8,1.842,0.547,9.94,104.1418,9.88,10.92,76.85,0,110.2,13.34,10.66,84.8
"2009-05-27 01:41:30",922115,6.108,128.8,7.718,1.41,12.7,104.1398,9.87,11.1,77.05,0,110.2,13.34,10.66,90.8
"2009-05-27 01:42:00",922116,5.94,127.7,5.318,1.266,12.05,104.1406,9.87,11.11,76.96,0,110.2,13.34,10.66,89.7
"2009-05-27 01:42:30",922117,6.643,135.1,5.685,1.194,13.78,104.145,9.88,11.18,77.06,0,110.2,13.35,10.67,97.1
"2009-05-27 01:43:00",922118,6.34,132.4,6.491,1.316,12.38,104.1465,9.89,11.14,76.98,0,110.2,13.34,10.68,94.4
"2009-05-27 01:43:30",922119,5.97,131.5,6.806,1.248,11.65,104.15,9.9,11.06,76.36,0,110.2,13.34,10.68,93.5
"2009-05-27 01:44:00",922120,4.994,126.5,0.805,0.063,9.76,104.1452,9.89,10.88,75.86,0,110.2,13.38,10.67,88.5
"2009-05-27 01:44:30",922121,6.103,134.6,6.352,1.264,11.5,104.1426,9.88,10.88,75.68,0,110.2,13.34,10.67,96.6
"2009-05-27 01:45:00",922122,5.432,133.2,5.598,1.058,11.85,104.1242,9.83,11.04,75.73,0,110.2,13.35,10.62,95.2
"2009-05-27 01:45:30",922123,6.152,136.6,6.694,1.285,13.39,104.1253,9.83,11.1,75.53,0,110.2,13.35,10.62,98.6
"2009-05-27 01:46:00",922124,6.696,139.7,5.513,1.156,14.01,104.1262,9.84,11.07,75.27,0,110.2,13.35,10.62,101.7
"2009-05-27 01:46:30",922125,6.178,136.2,6.895,1.321,12.68,104.1282,9.84,10.95,75.04,0,110.2,13.34,10.63,98.2
"2009-05-27 01:47:00",922126,5.684,137.3,6.905,1.307,11.69,104.1291,9.84,10.99,75.12,0,110.2,13.34,10.63,99.3
"2009-05-27 01:47:30",922127,4.608,131.2,0.929,0.063,9.91,104.1258,9.84,10.82,75.1,0,110.2,13.38,10.62,93.2
"2009-05-27 01:48:00",922128,5.745,139.9,7.28,1.296,12.51,104.1173,9.81,10.96,75.25,0,110.2,13.34,10.60,101.9
"2009-05-27 01:48:30",922129,5.043,136.3,6.129,1.021,11.93,104.11,9.8,11,75.12,0,110.2,13.34,10.58,98.3
"2009-05-27 01:49:00",922130,5.992,143.3,6.491,1.277,13.75,104.1032,9.78,11.05,75.01,0,110.2,13.34,10.56,105.3